Showing default

CTS, 8585

Orbit data source: Space-Track

CTS, 8585 is a payload satellite owned by CRC (CA) in GEO that was launched on Sat, 17 Jan 1976 UTC via a DELTA 2914 launch vehicle from the Air Force Eastern Test Range (AFETR). Payloads include a variety of satellites, spacecraft, and rockets equipped with specific instruments for various scientific and technological missions. These include communications satellites like Starlink; space stations such as the ISS; scientific satellites like the Hubble; Earth observation satellites from companies like Planet Labs, Umbra, and HawkEye 360; GPS; miniature CubeSats for education and research; and military/defense satellites.

Loading next visibility...
CTS details
Identifier
8585, 1976-004A
Orbit
GEO
Last TLE update21 hours ago
Origin
Flag of CACRC (CA)
ManufacturerCRC
MissionCivil Communications
Bus & MotorCTS, Unknown motor
Mass685 kg wet, 311 kg dry
Launch date (UTC)
1976-01-17 (49 years ago)
Launch vehicle
DELTA 2914
Launch site
Air Force Eastern Test Range (AFETR)
Object type
Payload
Rocket body
Debris
Shape & HBRCyl + 2 Pan, 16.5 m
Radar Cross Section11.235 m², Large (>1 m²)

Expand to show TLE details & history

TLE from 21 hours ago
0 CTS
1 08585U 76004A   24346.43173285 -.00000140  00000-0  00000-0 0  9991
2 08585   5.3559 279.9020 0015705 273.2345 307.3771  1.00340702116753
Epoch: 2024-12-11T10:21Z
Definitive object data (Epoch: 2024-12-11T10:21:41.718Z)
Latitude-3.47778°
Longitude-95.83216°
Altitude35,727.54 km
Speed3.078 km/s
True Right ascension09h 20m 52s
True Declination-3° 28' 27"
Sunlit
Object was in daylight at TLE epoch
Visualization TLE readout
Latitude-0.25915°
Longitude-133.26486°
Altitude35,767.45 km
Speed3.075 km/s
Apparent Right ascension06h 56m 09s
Apparent Declination-6° 30' 48"
Sunlit
Object is in daylight
Visualization observer readout
Local Sidereal Time06:12:48
Azimuth165.322° S
Elevation42.505°
Doppler factor1
Orbital elements
Apogee altitude35,834.534 km
Perigee altitude35,702.152 km
Semi-major axis42,146.48 km
Eccentricity0.0015705
Inclination5.3559°
RAAN279.902°
Arg. of periapsis273.2345°
True anomaly307.23392°
Mean anomaly307.3771°
Eccentric anomaly307.30553°
Mean motion0.25084 °/min
BSTARUnknown
Orbital period1435.16 mins
Loading historical data...
8585 neighbors
Authenticating...
Loading maneuver chart data...
Loading historical data...
Loading historical data...
Loading historical data...
Loading historical data...
Loading historical data...
Loading historical data...
Loading historical data...

CTS Visibility forecast

Observer location: undefined°, undefined

Span
Click to sort rows by Start time (UTC) header in descending order
Start Az.
Max El. time (UTC)
Max El. Az.
Max El.
End time (UTC)
End Az.
1440 mins2024-12-12 07:47:14.947Z165.327° S2024-12-13 01:35:14.947Z162.807° S36.867°2024-12-13 07:47:14.947Z164.997° S
|